START_TIME,STEP,MOV.,A46,t_acc.,A13,t_acc.,M47,t_acc.,A17,t_acc.,A28,t_acc.,M38,t_acc.
1979-07-04 12:00:50.300 ,1,0,,0,0.,4.8,0.,4.8,,0,0.,4.8,0.,4.8
1979-07-04 12:00:55.100 ,1,0,,0,0.,4.8,0.,4.8,,0,0.,4.8,1.,4.8
1979-07-04 12:00:59.900 ,1,0,,0,0.,4.8,0.,4.8,,0,0.,4.8,0.,4.8
1979-07-04 12:01:04.700 ,1,0,,0,3.,4.8,0.,4.8,,0,0.,4.8,0.,4.8
1979-07-04 12:01:09.500 ,1,0,,0,5.,4.8,0.,4.8,,0,0.,4.8,0.,4.8
1979-07-04 12:01:14.300 ,1,0,,0,4.,4.8,0.,4.8,,0,0.,4.8,1.,4.8
1979-07-04 12:01:19.100 ,1,0,,0,11.,4.8,0.,4.8,,0,0.,4.8,0.,4.8
1979-07-04 12:01:23.900 ,1,0,,0,4.,4.8,0.,4.8,,0,0.,4.8,0.,4.8
1979-07-04 12:01:28.700 ,1,0,,0,0.,4.8,0.,4.8,,0,0.,4.8,0.,4.8
1979-07-04 12:01:33.500 ,1,0,,0,0.,4.8,0.,4.8,,0,0.,4.8,0.,4.8
1979-07-04 12:01:38.300 ,2,0,,0,0.,4.8,0.,4.8,,0,0.,4.8,1.,4.8
1979-07-04 12:01:43.100 ,2,0,,0,0.,4.8,0.,4.8,,0,0.,4.8,0.,4.8
1979-07-04 12:01:47.900 ,2,0,,0,1.,4.8,0.,4.8,,0,0.,4.8,1.,4.8
1979-07-04 12:01:52.700 ,2,0,,0,7.,4.8,0.,4.8,,0,0.,4.8,0.,4.8
1979-07-04 12:01:57.500 ,2,0,,0,3.,4.8,0.,4.8,,0,0.,4.8,0.,4.8
1979-07-04 12:02:02.300 ,2,0,,0,4.,4.8,0.,4.8,,0,0.,4.8,0.,4.8
1979-07-04 12:02:07.100 ,2,0,,0,4.,4.8,0.,4.8,,0,0.,4.8,0.,4.8
1979-07-04 12:02:11.900 ,2,0,,0,3.,4.8,0.,4.8,,0,0.,4.8,1.,4.8
1979-07-04 12:02:16.700 ,2,0,,0,0.,4.8,0.,4.8,,0,0.,4.8,0.,4.8
1979-07-04 12:02:21.500 ,2,0,,0,0.,4.8,0.,4.8,,0,0.,4.8,0.,4.8
1979-07-04 12:02:26.300 ,3,0,,0,0.,4.8,0.,4.8,,0,0.,4.8,0.,4.8
1979-07-04 12:02:31.100 ,3,0,,0,0.,4.8,0.,4.8,,0,0.,4.8,1.,4.8
1979-07-04 12:02:35.900 ,3,0,,0,3.,4.8,0.,4.8,,0,0.,4.8,1.,4.8
1979-07-04 12:02:40.700 ,3,0,,0,8.,4.8,0.,4.8,,0,0.,4.8,0.,4.8
1979-07-04 12:02:45.500 ,3,0,,0,2.,4.8,0.,4.8,,0,0.,4.8,1.,4.8
1979-07-04 12:02:50.300 ,3,0,,0,9.,4.8,0.,4.8,,0,0.,4.8,1.,4.8
1979-07-04 12:02:55.100 ,3,0,,0,10.,4.8,0.,4.8,,0,0.,4.8,1.,4.8
1979-07-04 12:02:59.900 ,3,0,,0,3.,4.8,0.,4.8,,0,0.,4.8,0.,4.8
1979-07-04 12:03:04.700 ,3,0,,0,0.,4.8,0.,4.8,,0,0.,4.8,0.,4.8
1979-07-04 12:03:09.500 ,3,0,,0,0.,4.8,1.,4.8,,0,0.,4.8,0.,4.8
1979-07-04 12:03:14.300 ,4,0,,0,0.,4.8,0.,4.8,,0,0.,4.8,2.,4.8
1979-07-04 12:03:19.100 ,4,0,,0,0.,4.8,0.,4.8,,0,0.,4.8,0.,4.8
1979-07-04 12:03:23.900 ,4,0,,0,2.,4.8,0.,4.8,,0,0.,4.8,1.,4.8
1979-07-04 12:03:28.700 ,4,0,,0,7.,4.8,1.,4.8,,0,0.,4.8,0.,4.8
1979-07-04 12:03:33.500 ,4,0,,0,13.,4.8,0.,4.8,,0,0.,4.8,0.,4.8
1979-07-04 12:03:38.300 ,4,0,,0,4.,4.8,0.,4.8,,0,0.,4.8,0.,4.8
1979-07-04 12:03:43.100 ,4,0,,0,4.,4.8,0.,4.8,,0,0.,4.8,2.,4.8
1979-07-04 12:03:47.900 ,4,0,,0,8.,4.8,0.,4.8,,0,0.,4.8,2.,4.8
1979-07-04 12:03:52.700 ,4,0,,0,0.,4.8,0.,4.8,,0,0.,4.8,2.,4.8
1979-07-04 12:03:57.500 ,4,0,,0,0.,4.8,0.,4.8,,0,0.,4.8,0.,4.8
1979-07-04 12:04:02.300 ,5,0,,0,0.,4.8,0.,4.8,,0,0.,4.8,2.,4.8
1979-07-04 12:04:07.100 ,5,0,,0,0.,4.8,0.,4.8,,0,0.,4.8,1.,4.8
1979-07-04 12:04:11.900 ,5,0,,0,1.,4.8,0.,4.8,,0,0.,4.8,0.,4.8
1979-07-04 12:04:16.700 ,5,0,,0,7.,4.8,0.,4.8,,0,0.,4.8,0.,4.8
1979-07-04 12:04:21.500 ,5,0,,0,8.,4.8,0.,4.8,,0,0.,4.8,1.,4.8
1979-07-04 12:04:26.300 ,5,0,,0,8.,4.8,0.,4.8,,0,0.,4.8,1.,4.8
1979-07-04 12:04:31.100 ,5,0,,0,8.,4.8,0.,4.8,,0,0.,4.8,0.,4.8
1979-07-04 12:04:35.900 ,5,0,,0,5.,4.8,0.,4.8,,0,0.,4.8,0.,4.8
1979-07-04 12:04:40.700 ,5,0,,0,0.,4.8,0.,4.8,,0,0.,4.8,0.,4.8
1979-07-04 12:04:45.500 ,5,0,,0,0.,4.8,0.,4.8,,0,0.,4.8,0.,4.8
1979-07-04 12:04:50.300 ,6,0,,0,0.,4.8,0.,4.8,,0,0.,4.8,0.,4.8
1979-07-04 12:04:55.100 ,6,0,,0,0.,4.8,0.,4.8,,0,0.,4.8,0.,4.8
1979-07-04 12:04:59.900 ,6,0,,0,0.,4.8,0.,4.8,,0,0.,4.8,0.,4.8
1979-07-04 12:05:04.700 ,6,0,,0,6.,4.8,0.,4.8,,0,0.,4.8,0.,4.8
1979-07-04 12:05:09.500 ,6,0,,0,8.,4.8,0.,4.8,,0,0.,4.8,1.,4.8
1979-07-04 12:05:14.300 ,6,0,,0,10.,4.8,0.,4.8,,0,0.,4.8,0.,4.8
1979-07-04 12:05:19.100 ,6,0,,0,8.,4.8,0.,4.8,,0,0.,4.8,0.,4.8
1979-07-04 12:05:23.900 ,6,0,,0,5.,4.8,0.,4.8,,0,0.,4.8,0.,4.8
1979-07-04 12:05:28.700 ,6,0,,0,0.,4.8,0.,4.8,,0,0.,4.8,0.,4.8
1979-07-04 12:05:33.500 ,6,0,,0,0.,4.8,0.,4.8,,0,0.,4.8,0.,4.8
1979-07-04 12:05:38.300 ,7,0,,0,0.,4.8,0.,4.8,,0,0.,4.8,0.,4.8
1979-07-04 12:05:43.100 ,7,0,,0,0.,4.8,0.,4.8,,0,0.,4.8,0.,4.8
1979-07-04 12:05:47.900 ,7,0,,0,5.,4.8,0.,4.8,,0,0.,4.8,1.,4.8
1979-07-04 12:05:52.700 ,7,0,,0,18.,4.8,0.,4.8,,0,0.,4.8,0.,4.8
1979-07-04 12:05:57.500 ,7,0,,0,15.,4.8,0.,4.8,,0,0.,4.8,0.,4.8
1979-07-04 12:06:02.300 ,7,0,,0,14.,4.8,0.,4.8,,0,0.,4.8,0.,4.8
1979-07-04 12:06:07.100 ,7,0,,0,19.,4.8,0.,4.8,,0,0.,4.8,0.,4.8
1979-07-04 12:06:11.900 ,7,0,,0,10.,4.8,0.,4.8,,0,0.,4.8,0.,4.8
1979-07-04 12:06:16.700 ,7,0,,0,0.,4.8,0.,4.8,,0,0.,4.8,0.,4.8
1979-07-04 12:06:21.500 ,7,0,,0,1.,4.8,0.,4.8,,0,0.,4.8,0.,4.8
1979-07-04 12:06:26.300 ,7,0,,0,0.,4.8,0.,4.8,,0,0.,4.8,0.,4.8
1979-07-04 12:06:31.100 ,7,0,,0,0.,4.8,0.,4.8,,0,0.,4.8,0.,4.8
1979-07-04 12:06:35.900 ,7,0,,0,,0,,0,,0,,0,,0
1979-07-04 12:06:40.700 ,7,0,,0,21.,4.8,0.,4.8,,0,0.,4.8,0.,4.8
1979-07-04 12:06:45.500 ,7,0,,0,13.,4.8,0.,4.8,,0,0.,4.8,0.,4.8
1979-07-04 12:06:50.300 ,7,0,,0,12.,4.8,0.,4.8,,0,0.,4.8,0.,4.8
1979-07-04 12:06:55.100 ,7,0,,0,16.,4.8,0.,4.8,,0,0.,4.8,0.,4.8
1979-07-04 12:06:59.900 ,7,0,,0,15.,4.8,0.,4.8,,0,0.,4.8,0.,4.8
1979-07-04 12:07:04.700 ,7,0,,0,0.,4.8,0.,4.8,,0,0.,4.8,0.,4.8
1979-07-04 12:07:09.500 ,7,0,,0,0.,4.8,0.,4.8,,0,0.,4.8,0.,4.8
1979-07-04 12:07:14.300 ,6,0,,0,0.,4.8,0.,4.8,,0,0.,4.8,0.,4.8
1979-07-04 12:07:19.100 ,6,0,,0,0.,4.8,0.,4.8,,0,0.,4.8,0.,4.8
1979-07-04 12:07:23.900 ,6,0,,0,2.,4.8,0.,4.8,,0,0.,4.8,0.,4.8
1979-07-04 12:07:28.700 ,6,0,,0,,0,,0,,0,,0,,0
1979-07-04 12:07:33.500 ,6,0,,0,7.,4.8,0.,4.8,,0,0.,4.8,0.,4.8
1979-07-04 12:07:38.300 ,6,0,,0,10.,4.8,0.,4.8,,0,0.,4.8,0.,4.8
1979-07-04 12:07:43.100 ,6,0,,0,10.,4.8,0.,4.8,,0,0.,4.8,0.,4.8
1979-07-04 12:07:47.900 ,6,0,,0,4.,4.8,0.,4.8,,0,0.,4.8,0.,4.8
1979-07-04 12:07:52.700 ,6,0,,0,0.,4.8,0.,4.8,,0,0.,4.8,0.,4.8
1979-07-04 12:07:57.500 ,6,0,,0,0.,4.8,0.,4.8,,0,0.,4.8,0.,4.8
1979-07-04 12:08:02.300 ,5,0,,0,0.,4.8,0.,4.8,,0,0.,4.8,0.,4.8
1979-07-04 12:08:07.100 ,5,0,,0,0.,4.8,0.,4.8,,0,0.,4.8,0.,4.8
1979-07-04 12:08:11.900 ,5,0,,0,3.,4.8,0.,4.8,,0,0.,4.8,1.,4.8
1979-07-04 12:08:16.700 ,5,0,,0,10.,4.8,0.,4.8,,0,0.,4.8,1.,4.8
1979-07-04 12:08:21.500 ,5,0,,0,10.,4.8,0.,4.8,,0,0.,4.8,0.,4.8
1979-07-04 12:08:26.300 ,5,0,,0,10.,4.8,0.,4.8,,0,0.,4.8,0.,4.8
1979-07-04 12:08:31.100 ,5,0,,0,11.,4.8,1.,4.8,,0,0.,4.8,0.,4.8
1979-07-04 12:08:35.900 ,5,0,,0,5.,4.8,0.,4.8,,0,0.,4.8,0.,4.8
1979-07-04 12:08:40.700 ,5,0,,0,0.,4.8,0.,4.8,,0,0.,4.8,0.,4.8
1979-07-04 12:08:45.500 ,5,0,,0,0.,4.8,0.,4.8,,0,0.,4.8,0.,4.8
1979-07-04 12:08:50.300 ,4,0,,0,0.,4.8,0.,4.8,,0,0.,4.8,0.,4.8
1979-07-04 12:08:55.100 ,4,0,,0,0.,4.8,0.,4.8,,0,0.,4.8,0.,4.8
1979-07-04 12:08:59.900 ,4,0,,0,4.,4.8,0.,4.8,,0,0.,4.8,3.,4.8
1979-07-04 12:09:04.700 ,4,0,,0,6.,4.8,0.,4.8,,0,0.,4.8,1.,4.8
1979-07-04 12:09:09.500 ,4,0,,0,14.,4.8,1.,4.8,,0,0.,4.8,1.,4.8
1979-07-04 12:09:14.300 ,4,0,,0,9.,4.8,0.,4.8,,0,0.,4.8,0.,4.8
1979-07-04 12:09:19.100 ,4,0,,0,8.,4.8,0.,4.8,,0,0.,4.8,1.,4.8
1979-07-04 12:09:23.900 ,4,0,,0,10.,4.8,1.,4.8,,0,0.,4.8,1.,4.8
1979-07-04 12:09:28.700 ,4,0,,0,1.,4.8,0.,4.8,,0,0.,4.8,0.,4.8
1979-07-04 12:09:33.500 ,4,0,,0,0.,4.8,0.,4.8,,0,0.,4.8,0.,4.8
1979-07-04 12:09:38.300 ,3,0,,0,0.,4.8,0.,4.8,,0,0.,4.8,0.,4.8
1979-07-04 12:09:43.100 ,3,0,,0,0.,4.8,0.,4.8,,0,0.,4.8,1.,4.8
1979-07-04 12:09:47.900 ,3,0,,0,2.,4.8,0.,4.8,,0,0.,4.8,1.,4.8
1979-07-04 12:09:52.700 ,3,0,,0,8.,4.8,0.,4.8,,0,0.,4.8,1.,4.8
1979-07-04 12:09:57.500 ,3,0,,0,7.,4.8,0.,4.8,,0,0.,4.8,0.,4.8
1979-07-04 12:10:02.300 ,3,0,,0,16.,4.8,1.,4.8,,0,0.,4.8,1.,4.8
1979-07-04 12:10:07.100 ,3,0,,0,14.,4.8,0.,4.8,,0,0.,4.8,0.,4.8
1979-07-04 12:10:11.900 ,3,0,,0,1.,4.8,0.,4.8,,0,0.,4.8,0.,4.8
1979-07-04 12:10:16.700 ,3,0,,0,0.,4.8,0.,4.8,,0,0.,4.8,0.,4.8
1979-07-04 12:10:21.500 ,3,0,,0,0.,4.8,0.,4.8,,0,0.,4.8,1.,4.8
1979-07-04 12:10:26.300 ,2,0,,0,0.,4.8,0.,4.8,,0,0.,4.8,0.,4.8
1979-07-04 12:10:31.100 ,2,0,,0,0.,4.8,0.,4.8,,0,0.,4.8,0.,4.8
1979-07-04 12:10:35.900 ,2,0,,0,0.,4.8,0.,4.8,,0,0.,4.8,1.,4.8
1979-07-04 12:10:40.700 ,2,0,,0,3.,4.8,0.,4.8,,0,0.,4.8,0.,4.8
1979-07-04 12:10:45.500 ,2,0,,0,8.,4.8,0.,4.8,,0,0.,4.8,1.,4.8
1979-07-04 12:10:50.300 ,2,0,,0,10.,4.8,0.,4.8,,0,0.,4.8,0.,4.8
1979-07-04 12:10:55.100 ,2,0,,0,11.,4.8,0.,4.8,,0,0.,4.8,0.,4.8
1979-07-04 12:10:59.900 ,2,0,,0,6.,4.8,0.,4.8,,0,0.,4.8,0.,4.8
1979-07-04 12:11:04.700 ,2,0,,0,0.,4.8,0.,4.8,,0,0.,4.8,1.,4.8
1979-07-04 12:11:09.500 ,2,0,,0,0.,4.8,0.,4.8,,0,0.,4.8,0.,4.8
1979-07-04 12:11:14.300 ,1,0,,0,0.,4.8,0.,4.8,,0,0.,4.8,1.,4.8
1979-07-04 12:11:19.100 ,1,0,,0,,0,,0,,0,,0,,0
1979-07-04 12:11:23.900 ,1,0,,0,0.,4.8,0.,4.8,,0,0.,4.8,0.,4.8
1979-07-04 12:11:28.700 ,1,0,,0,5.,4.8,0.,4.8,,0,0.,4.8,0.,4.8
1979-07-04 12:11:33.500 ,1,0,,0,5.,4.8,0.,4.8,,0,0.,4.8,0.,4.8
1979-07-04 12:11:38.300 ,1,0,,0,8.,4.8,0.,4.8,,0,0.,4.8,0.,4.8
1979-07-04 12:11:43.100 ,1,0,,0,3.,4.8,0.,4.8,,0,0.,4.8,0.,4.8
1979-07-04 12:11:47.900 ,1,0,,0,2.,4.8,0.,4.8,,0,0.,4.8,0.,4.8
1979-07-04 12:11:52.700 ,1,0,,0,0.,4.8,0.,4.8,,0,0.,4.8,1.,4.8
1979-07-04 12:11:57.500 ,1,0,,0,0.,4.8,0.,4.8,,0,0.,4.8,0.,4.8
1979-07-04 12:12:02.300 ,0,0,,0,0.,4.8,1.,4.8,,0,0.,4.8,0.,4.8
1979-07-04 12:12:07.100 ,0,0,,0,0.,4.8,0.,4.8,,0,0.,4.8,0.,4.8
1979-07-04 12:12:11.900 ,0,0,,0,1.,4.8,1.,4.8,,0,0.,4.8,1.,4.8
1979-07-04 12:12:16.700 ,0,0,,0,7.,4.8,0.,4.8,,0,0.,4.8,0.,4.8
1979-07-04 12:12:21.500 ,0,0,,0,5.,4.8,0.,4.8,,0,0.,4.8,0.,4.8
1979-07-04 12:12:26.300 ,0,0,,0,3.,4.8,0.,4.8,,0,0.,4.8,0.,4.8
1979-07-04 12:12:31.100 ,0,0,,0,1.,4.8,0.,4.8,,0,0.,4.8,0.,4.8
1979-07-04 12:12:35.900 ,0,0,,0,2.,4.8,0.,4.8,,0,0.,4.8,0.,4.8
1979-07-04 12:12:40.700 ,0,0,,0,0.,4.8,0.,4.8,,0,0.,4.8,0.,4.8
1979-07-04 12:12:45.500 ,0,0,,0,0.,4.8,0.,4.8,,0,0.,4.8,0.,4.8
1979-07-04 12:12:50.300 ,0,0,,0,0.,4.8,0.,4.8,,0,0.,4.8,0.,4.8
1979-07-04 12:12:55.100 ,0,0,,0,1.,4.8,0.,4.8,,0,0.,4.8,0.,4.8
1979-07-04 12:12:59.900 ,0,0,,0,4.,4.8,0.,4.8,,0,0.,4.8,0.,4.8
1979-07-04 12:13:04.700 ,0,0,,0,6.,4.8,0.,4.8,,0,0.,4.8,1.,4.8
1979-07-04 12:13:09.500 ,0,0,,0,4.,4.8,0.,4.8,,0,0.,4.8,0.,4.8
1979-07-04 12:13:14.300 ,0,0,,0,2.,4.8,0.,4.8,,0,0.,4.8,0.,4.8
1979-07-04 12:13:19.100 ,0,0,,0,5.,4.8,0.,4.8,,0,0.,4.8,0.,4.8
1979-07-04 12:13:23.900 ,0,0,,0,6.,4.8,0.,4.8,,0,0.,4.8,0.,4.8
1979-07-04 12:13:28.700 ,0,0,,0,0.,4.8,0.,4.8,,0,0.,4.8,1.,4.8
1979-07-04 12:13:33.500 ,0,0,,0,0.,4.8,0.,4.8,,0,0.,4.8,0.,4.8
1979-07-04 12:13:38.300 ,1,0,,0,0.,4.8,0.,4.8,,0,0.,4.8,0.,4.8
1979-07-04 12:13:43.100 ,1,0,,0,0.,4.8,0.,4.8,,0,0.,4.8,0.,4.8
1979-07-04 12:13:47.900 ,1,0,,0,0.,4.8,0.,4.8,,0,0.,4.8,0.,4.8
1979-07-04 12:13:52.700 ,1,0,,0,5.,4.8,0.,4.8,,0,0.,4.8,0.,4.8
1979-07-04 12:13:57.500 ,1,0,,0,6.,4.8,0.,4.8,,0,0.,4.8,0.,4.8
1979-07-04 12:14:02.300 ,1,0,,0,5.,4.8,0.,4.8,,0,0.,4.8,0.,4.8
1979-07-04 12:14:07.100 ,1,0,,0,8.,4.8,1.,4.8,,0,0.,4.8,0.,4.8
1979-07-04 12:14:11.900 ,1,0,,0,3.,4.8,0.,4.8,,0,0.,4.8,0.,4.8
1979-07-04 12:14:16.700 ,1,0,,0,0.,4.8,0.,4.8,,0,0.,4.8,0.,4.8
1979-07-04 12:14:21.500 ,1,0,,0,0.,4.8,0.,4.8,,0,0.,4.8,1.,4.8
1979-07-04 12:14:26.300 ,2,0,,0,0.,4.8,1.,4.8,,0,0.,4.8,1.,4.8
1979-07-04 12:14:31.100 ,2,0,,0,0.,4.8,0.,4.8,,0,0.,4.8,0.,4.8
1979-07-04 12:14:35.900 ,2,0,,0,1.,4.8,0.,4.8,,0,0.,4.8,0.,4.8
1979-07-04 12:14:40.700 ,2,0,,0,6.,4.8,0.,4.8,,0,0.,4.8,0.,4.8
1979-07-04 12:14:45.500 ,2,0,,0,6.,4.8,0.,4.8,,0,0.,4.8,0.,4.8
1979-07-04 12:14:50.300 ,2,0,,0,8.,4.8,0.,4.8,,0,0.,4.8,1.,4.8
1979-07-04 12:14:55.100 ,2,0,,0,9.,4.8,0.,4.8,,0,0.,4.8,1.,4.8
1979-07-04 12:14:59.900 ,2,0,,0,5.,4.8,0.,4.8,,0,0.,4.8,1.,4.8
1979-07-04 12:15:04.700 ,2,0,,0,0.,4.8,0.,4.8,,0,0.,4.8,0.,4.8
1979-07-04 12:15:09.500 ,2,0,,0,0.,4.8,0.,4.8,,0,0.,4.8,0.,4.8
1979-07-04 12:15:14.300 ,3,0,,0,0.,4.8,0.,4.8,,0,0.,4.8,0.,4.8
1979-07-04 12:15:19.100 ,3,0,,0,0.,4.8,0.,4.8,,0,0.,4.8,0.,4.8
1979-07-04 12:15:23.900 ,3,0,,0,0.,4.8,0.,4.8,,0,0.,4.8,0.,4.8
1979-07-04 12:15:28.700 ,3,0,,0,7.,4.8,0.,4.8,,0,0.,4.8,0.,4.8
1979-07-04 12:15:33.500 ,3,0,,0,7.,4.8,0.,4.8,,0,0.,4.8,1.,4.8
1979-07-04 12:15:38.300 ,3,0,,0,7.,4.8,0.,4.8,,0,0.,4.8,0.,4.8
1979-07-04 12:15:43.100 ,3,0,,0,6.,4.8,0.,4.8,,0,0.,4.8,1.,4.8
1979-07-04 12:15:47.900 ,3,0,,0,8.,4.8,0.,4.8,,0,0.,4.8,0.,4.8
1979-07-04 12:15:52.700 ,3,0,,0,0.,4.8,0.,4.8,,0,0.,4.8,0.,4.8
1979-07-04 12:15:57.500 ,3,0,,0,0.,4.8,0.,4.8,,0,0.,4.8,1.,4.8
1979-07-04 12:16:02.300 ,4,0,,0,0.,4.8,0.,4.8,,0,0.,4.8,0.,4.8
1979-07-04 12:16:07.100 ,4,0,,0,0.,4.8,1.,4.8,,0,0.,4.8,1.,4.8
1979-07-04 12:16:11.900 ,4,0,,0,0.,4.8,0.,4.8,,0,0.,4.8,0.,4.8
1979-07-04 12:16:16.700 ,4,0,,0,9.,4.8,0.,4.8,,0,0.,4.8,1.,4.8
1979-07-04 12:16:21.500 ,4,0,,0,7.,4.8,0.,4.8,,0,0.,4.8,2.,4.8
1979-07-04 12:16:26.300 ,4,0,,0,7.,4.8,0.,4.8,,0,0.,4.8,2.,4.8
1979-07-04 12:16:31.100 ,4,0,,0,7.,4.8,0.,4.8,,0,0.,4.8,0.,4.8
1979-07-04 12:16:35.900 ,4,0,,0,8.,4.8,1.,4.8,,0,0.,4.8,1.,4.8
1979-07-04 12:16:40.700 ,4,0,,0,0.,4.8,0.,4.8,,0,0.,4.8,0.,4.8
1979-07-04 12:16:45.500 ,4,0,,0,0.,4.8,0.,4.8,,0,0.,4.8,0.,4.8
1979-07-04 12:16:50.300 ,5,0,,0,0.,4.8,0.,4.8,,0,0.,4.8,0.,4.8
1979-07-04 12:16:55.100 ,5,0,,0,0.,4.8,0.,4.8,,0,0.,4.8,2.,4.8
1979-07-04 12:16:59.900 ,5,0,,0,1.,4.8,0.,4.8,,0,0.,4.8,1.,4.8
1979-07-04 12:17:04.700 ,5,0,,0,10.,4.8,0.,4.8,,0,0.,4.8,0.,4.8
1979-07-04 12:17:09.500 ,5,0,,0,8.,4.8,1.,4.8,,0,0.,4.8,0.,4.8
1979-07-04 12:17:14.300 ,5,0,,0,12.,4.8,1.,4.8,,0,0.,4.8,0.,4.8
1979-07-04 12:17:19.100 ,5,0,,0,4.,4.8,0.,4.8,,0,0.,4.8,1.,4.8
1979-07-04 12:17:23.900 ,5,0,,0,8.,4.8,0.,4.8,,0,0.,4.8,0.,4.8
1979-07-04 12:17:28.700 ,5,0,,0,0.,4.8,0.,4.8,,0,0.,4.8,0.,4.8
1979-07-04 12:17:33.500 ,5,0,,0,0.,4.8,0.,4.8,,0,0.,4.8,1.,4.8
1979-07-04 12:17:38.300 ,6,0,,0,0.,4.8,0.,4.8,,0,0.,4.8,0.,4.8
1979-07-04 12:17:43.100 ,6,0,,0,0.,4.8,0.,4.8,,0,1.,4.8,0.,4.8
1979-07-04 12:17:47.900 ,6,0,,0,1.,4.8,0.,4.8,,0,0.,4.8,0.,4.8
1979-07-04 12:17:52.700 ,6,0,,0,11.,4.8,0.,4.8,,0,0.,4.8,0.,4.8
1979-07-04 12:17:57.500 ,6,0,,0,12.,4.8,0.,4.8,,0,0.,4.8,0.,4.8
1979-07-04 12:18:02.300 ,6,0,,0,11.,4.8,0.,4.8,,0,0.,4.8,0.,4.8
1979-07-04 12:18:07.100 ,6,0,,0,9.,4.8,0.,4.8,,0,0.,4.8,0.,4.8
1979-07-04 12:18:11.900 ,6,0,,0,4.,4.8,0.,4.8,,0,0.,4.8,0.,4.8
1979-07-04 12:18:16.700 ,6,0,,0,0.,4.8,0.,4.8,,0,0.,4.8,1.,4.8
1979-07-04 12:18:21.500 ,6,0,,0,0.,4.8,0.,4.8,,0,0.,4.8,0.,4.8
1979-07-04 12:18:26.300 ,7,0,,0,0.,4.8,0.,4.8,,0,0.,4.8,0.,4.8
1979-07-04 12:18:31.100 ,7,0,,0,0.,4.8,0.,4.8,,0,0.,4.8,0.,4.8
1979-07-04 12:18:35.900 ,7,0,,0,5.,4.8,0.,4.8,,0,0.,4.8,0.,4.8
1979-07-04 12:18:40.700 ,7,0,,0,22.,4.8,0.,4.8,,0,0.,4.8,0.,4.8
1979-07-04 12:18:45.500 ,7,0,,0,18.,4.8,0.,4.8,,0,0.,4.8,0.,4.8
1979-07-04 12:18:50.300 ,7,0,,0,14.,4.8,0.,4.8,,0,0.,4.8,0.,4.8
1979-07-04 12:18:55.100 ,7,0,,0,18.,4.8,0.,4.8,,0,0.,4.8,0.,4.8
1979-07-04 12:18:59.900 ,7,0,,0,14.,4.8,0.,4.8,,0,0.,4.8,0.,4.8
1979-07-04 12:19:04.700 ,7,0,,0,0.,4.8,0.,4.8,,0,0.,4.8,0.,4.8
1979-07-04 12:19:09.500 ,7,0,,0,0.,4.8,0.,4.8,,0,0.,4.8,0.,4.8
1979-07-04 12:19:14.300 ,7,0,,0,0.,4.8,0.,4.8,,0,0.,4.8,0.,4.8
1979-07-04 12:19:19.100 ,7,0,,0,0.,4.8,0.,4.8,,0,0.,4.8,0.,4.8
1979-07-04 12:19:23.900 ,7,0,,0,2.,4.8,0.,4.8,,0,0.,4.8,0.,4.8
1979-07-04 12:19:28.700 ,7,0,,0,20.,4.8,0.,4.8,,0,0.,4.8,2.,4.8
1979-07-04 12:19:33.500 ,7,0,,0,16.,4.8,0.,4.8,,0,0.,4.8,0.,4.8
1979-07-04 12:19:38.300 ,7,0,,0,17.,4.8,0.,4.8,,0,0.,4.8,0.,4.8
1979-07-04 12:19:43.100 ,7,0,,0,10.,4.8,0.,4.8,,0,0.,4.8,0.,4.8
1979-07-04 12:19:47.900 ,7,0,,0,12.,4.8,0.,4.8,,0,0.,4.8,0.,4.8
1979-07-04 12:19:52.700 ,7,0,,0,0.,4.8,0.,4.8,,0,0.,4.8,0.,4.8
1979-07-04 12:19:57.500 ,7,0,,0,0.,4.8,0.,4.8,,0,0.,4.8,0.,4.8
1979-07-04 12:20:02.300 ,6,0,,0,0.,4.8,0.,4.8,,0,0.,4.8,0.,4.8
1979-07-04 12:20:07.100 ,6,0,,0,0.,4.8,0.,4.8,,0,0.,4.8,0.,4.8
1979-07-04 12:20:11.900 ,6,0,,0,1.,4.8,0.,4.8,,0,0.,4.8,0.,4.8
1979-07-04 12:20:16.700 ,6,0,,0,9.,4.8,0.,4.8,,0,0.,4.8,0.,4.8
1979-07-04 12:20:21.500 ,6,0,,0,6.,4.8,0.,4.8,,0,0.,4.8,1.,4.8
1979-07-04 12:20:26.300 ,6,0,,0,10.,4.8,0.,4.8,,0,0.,4.8,0.,4.8
1979-07-04 12:20:31.100 ,6,0,,0,12.,4.8,0.,4.8,,0,0.,4.8,0.,4.8
1979-07-04 12:20:35.900 ,6,0,,0,6.,4.8,0.,4.8,,0,0.,4.8,0.,4.8
1979-07-04 12:20:40.700 ,6,0,,0,0.,4.8,0.,4.8,,0,0.,4.8,0.,4.8
1979-07-04 12:20:45.500 ,6,0,,0,0.,4.8,0.,4.8,,0,0.,4.8,0.,4.8
1979-07-04 12:20:50.300 ,5,0,,0,0.,4.8,0.,4.8,,0,0.,4.8,0.,4.8
1979-07-04 12:20:55.100 ,5,0,,0,0.,4.8,0.,4.8,,0,0.,4.8,0.,4.8
1979-07-04 12:20:59.900 ,5,0,,0,0.,4.8,0.,4.8,,0,0.,4.8,0.,4.8
1979-07-04 12:21:04.700 ,5,0,,0,9.,4.8,0.,4.8,,0,0.,4.8,0.,4.8
1979-07-04 12:21:09.500 ,5,0,,0,10.,4.8,0.,4.8,,0,0.,4.8,0.,4.8
1979-07-04 12:21:14.300 ,5,0,,0,8.,4.8,0.,4.8,,0,0.,4.8,0.,4.8
1979-07-04 12:21:19.100 ,5,0,,0,12.,4.8,0.,4.8,,0,0.,4.8,0.,4.8
1979-07-04 12:21:23.900 ,5,0,,0,5.,4.8,0.,4.8,,0,0.,4.8,1.,4.8
1979-07-04 12:21:28.700 ,5,0,,0,0.,4.8,0.,4.8,,0,0.,4.8,0.,4.8
1979-07-04 12:21:33.500 ,5,0,,0,0.,4.8,0.,4.8,,0,0.,4.8,0.,4.8
1979-07-04 12:21:38.300 ,4,0,,0,0.,4.8,0.,4.8,,0,0.,4.8,0.,4.8
1979-07-04 12:21:43.100 ,4,0,,0,0.,4.8,0.,4.8,,0,0.,4.8,1.,4.8
1979-07-04 12:21:47.900 ,4,0,,0,1.,4.8,0.,4.8,,0,0.,4.8,1.,4.8
1979-07-04 12:21:52.700 ,4,0,,0,10.,4.8,0.,4.8,,0,0.,4.8,1.,4.8
1979-07-04 12:21:57.500 ,4,0,,0,9.,4.8,0.,4.8,,0,0.,4.8,0.,4.8
1979-07-04 12:22:02.300 ,4,0,,0,10.,4.8,0.,4.8,,0,0.,4.8,0.,4.8
1979-07-04 12:22:07.100 ,4,0,,0,15.,4.8,1.,4.8,,0,0.,4.8,0.,4.8
1979-07-04 12:22:11.900 ,4,0,,0,9.,4.8,0.,4.8,,0,0.,4.8,0.,4.8
1979-07-04 12:22:16.700 ,4,0,,0,0.,4.8,0.,4.8,,0,0.,4.8,0.,4.8
1979-07-04 12:22:21.500 ,4,0,,0,0.,4.8,0.,4.8,,0,0.,4.8,2.,4.8
1979-07-04 12:22:26.300 ,3,0,,0,0.,4.8,0.,4.8,,0,0.,4.8,1.,4.8
1979-07-04 12:22:31.100 ,3,0,,0,0.,4.8,0.,4.8,,0,0.,4.8,1.,4.8
1979-07-04 12:22:35.900 ,3,0,,0,1.,4.8,0.,4.8,,0,0.,4.8,0.,4.8
1979-07-04 12:22:40.700 ,3,0,,0,14.,4.8,0.,4.8,,0,0.,4.8,0.,4.8
1979-07-04 12:22:45.500 ,3,0,,0,6.,4.8,0.,4.8,,0,0.,4.8,0.,4.8
1979-07-04 12:22:50.300 ,3,0,,0,10.,4.8,0.,4.8,,0,0.,4.8,0.,4.8
1979-07-04 12:22:55.100 ,3,0,,0,7.,4.8,0.,4.8,,0,0.,4.8,2.,4.8
1979-07-04 12:22:59.900 ,3,0,,0,2.,4.8,0.,4.8,,0,0.,4.8,1.,4.8
1979-07-04 12:23:04.700 ,3,0,,0,0.,4.8,0.,4.8,,0,0.,4.8,0.,4.8
1979-07-04 12:23:09.500 ,3,0,,0,0.,4.8,0.,4.8,,0,0.,4.8,2.,4.8
1979-07-04 12:23:14.300 ,2,0,,0,0.,4.8,0.,4.8,,0,0.,4.8,0.,4.8
1979-07-04 12:23:19.100 ,2,0,,0,0.,4.8,0.,4.8,,0,0.,4.8,0.,4.8
1979-07-04 12:23:23.900 ,2,0,,0,1.,4.8,0.,4.8,,0,0.,4.8,0.,4.8
1979-07-04 12:23:28.700 ,2,0,,0,8.,4.8,0.,4.8,,0,0.,4.8,0.,4.8
1979-07-04 12:23:33.500 ,2,0,,0,4.,4.8,0.,4.8,,0,0.,4.8,0.,4.8
1979-07-04 12:23:38.300 ,2,0,,0,6.,4.8,0.,4.8,,0,0.,4.8,0.,4.8
1979-07-04 12:23:43.100 ,2,0,,0,9.,4.8,0.,4.8,,0,0.,4.8,0.,4.8
1979-07-04 12:23:47.900 ,2,0,,0,7.,4.8,0.,4.8,,0,0.,4.8,0.,4.8
1979-07-04 12:23:52.700 ,2,0,,0,0.,4.8,0.,4.8,,0,0.,4.8,1.,4.8
1979-07-04 12:23:57.500 ,2,0,,0,1.,4.8,0.,4.8,,0,0.,4.8,0.,4.8
1979-07-04 12:24:02.300 ,1,0,,0,0.,4.8,0.,4.8,,0,0.,4.8,1.,4.8
1979-07-04 12:24:07.100 ,1,0,,0,0.,4.8,0.,4.8,,0,0.,4.8,0.,4.8
1979-07-04 12:24:11.900 ,1,0,,0,2.,4.8,0.,4.8,,0,0.,4.8,0.,4.8
1979-07-04 12:24:16.700 ,1,0,,0,7.,4.8,0.,4.8,,0,0.,4.8,0.,4.8
1979-07-04 12:24:21.500 ,1,0,,0,3.,4.8,0.,4.8,,0,0.,4.8,0.,4.8
1979-07-04 12:24:26.300 ,1,0,,0,5.,4.8,0.,4.8,,0,0.,4.8,0.,4.8
1979-07-04 12:24:31.100 ,1,0,,0,7.,4.8,0.,4.8,,0,0.,4.8,0.,4.8
1979-07-04 12:24:35.900 ,1,0,,0,5.,4.8,0.,4.8,,0,0.,4.8,0.,4.8
1979-07-04 12:24:40.700 ,1,0,,0,0.,4.8,0.,4.8,,0,0.,4.8,0.,4.8
1979-07-04 12:24:45.500 ,1,0,,0,0.,4.8,0.,4.8,,0,0.,4.8,0.,4.8
1979-07-04 12:24:50.300 ,0,0,,0,0.,4.8,0.,4.8,,0,0.,4.8,0.,4.8
1979-07-04 12:24:55.100 ,0,0,,0,0.,4.8,0.,4.8,,0,0.,4.8,0.,4.8
1979-07-04 12:24:59.900 ,0,0,,0,0.,4.8,0.,4.8,,0,0.,4.8,0.,4.8
1979-07-04 12:25:04.700 ,0,0,,0,5.,4.8,0.,4.8,,0,0.,4.8,0.,4.8
1979-07-04 12:25:09.500 ,0,0,,0,5.,4.8,0.,4.8,,0,0.,4.8,0.,4.8
1979-07-04 12:25:14.300 ,0,0,,0,7.,4.8,0.,4.8,,0,0.,4.8,0.,4.8
1979-07-04 12:25:19.100 ,0,0,,0,6.,4.8,0.,4.8,,0,0.,4.8,0.,4.8
1979-07-04 12:25:23.900 ,0,0,,0,6.,4.8,0.,4.8,,0,0.,4.8,0.,4.8
1979-07-04 12:25:28.700 ,0,0,,0,0.,4.8,0.,4.8,,0,0.,4.8,0.,4.8
1979-07-04 12:25:33.500 ,0,0,,0,0.,4.8,0.,4.8,,0,0.,4.8,0.,4.8
1979-07-04 12:25:38.300 ,0,0,,0,0.,4.8,0.,4.8,,0,0.,4.8,1.,4.8
1979-07-04 12:25:43.100 ,0,0,,0,0.,4.8,0.,4.8,,0,0.,4.8,0.,4.8
1979-07-04 12:25:47.900 ,0,0,,0,0.,4.8,0.,4.8,,0,0.,4.8,0.,4.8
1979-07-04 12:25:52.700 ,0,0,,0,4.,4.8,0.,4.8,,0,0.,4.8,1.,4.8
1979-07-04 12:25:57.500 ,0,0,,0,1.,4.8,0.,4.8,,0,0.,4.8,0.,4.8
1979-07-04 12:26:02.300 ,0,0,,0,3.,4.8,0.,4.8,,0,0.,4.8,0.,4.8
1979-07-04 12:26:07.100 ,0,0,,0,3.,4.8,0.,4.8,,0,0.,4.8,0.,4.8
1979-07-04 12:26:11.900 ,0,0,,0,4.,4.8,0.,4.8,,0,0.,4.8,0.,4.8
1979-07-04 12:26:16.700 ,0,0,,0,0.,4.8,0.,4.8,,0,0.,4.8,0.,4.8
1979-07-04 12:26:21.500 ,0,0,,0,0.,4.8,0.,4.8,,0,0.,4.8,0.,4.8
1979-07-04 12:26:26.300 ,1,0,,0,0.,4.8,0.,4.8,,0,0.,4.8,0.,4.8
1979-07-04 12:26:31.100 ,1,0,,0,0.,4.8,0.,4.8,,0,0.,4.8,0.,4.8
1979-07-04 12:26:35.900 ,1,0,,0,0.,4.8,0.,4.8,,0,0.,4.8,0.,4.8
1979-07-04 12:26:40.700 ,1,0,,0,8.,4.8,0.,4.8,,0,0.,4.8,0.,4.8
1979-07-04 12:26:45.500 ,1,0,,0,2.,4.8,0.,4.8,,0,0.,4.8,0.,4.8
1979-07-04 12:26:50.300 ,1,0,,0,9.,4.8,0.,4.8,,0,0.,4.8,0.,4.8
1979-07-04 12:26:55.100 ,1,0,,0,5.,4.8,0.,4.8,,0,0.,4.8,0.,4.8
1979-07-04 12:26:59.900 ,1,0,,0,3.,4.8,0.,4.8,,0,0.,4.8,0.,4.8
1979-07-04 12:27:04.700 ,1,0,,0,0.,4.8,0.,4.8,,0,0.,4.8,0.,4.8
1979-07-04 12:27:09.500 ,1,0,,0,0.,4.8,0.,4.8,,0,0.,4.8,1.,4.8
1979-07-04 12:27:14.300 ,2,0,,0,0.,4.8,0.,4.8,,0,0.,4.8,0.,4.8
1979-07-04 12:27:19.100 ,2,0,,0,0.,4.8,0.,4.8,,0,0.,4.8,0.,4.8
1979-07-04 12:27:23.900 ,2,0,,0,2.,4.8,0.,4.8,,0,0.,4.8,1.,4.8
1979-07-04 12:27:28.700 ,2,0,,0,6.,4.8,0.,4.8,,0,0.,4.8,1.,4.8
1979-07-04 12:27:33.500 ,2,0,,0,3.,4.8,0.,4.8,,0,0.,4.8,0.,4.8
1979-07-04 12:27:38.300 ,2,0,,0,9.,4.8,0.,4.8,,0,0.,4.8,0.,4.8
1979-07-04 12:27:43.100 ,2,0,,0,3.,4.8,0.,4.8,,0,0.,4.8,0.,4.8
1979-07-04 12:27:47.900 ,2,0,,0,7.,4.8,0.,4.8,,0,0.,4.8,0.,4.8
1979-07-04 12:27:52.700 ,2,0,,0,0.,4.8,0.,4.8,,0,0.,4.8,1.,4.8
1979-07-04 12:27:57.500 ,2,0,,0,0.,4.8,0.,4.8,,0,0.,4.8,0.,4.8
1979-07-04 12:28:02.300 ,3,0,,0,0.,4.8,0.,4.8,,0,0.,4.8,0.,4.8
1979-07-04 12:28:07.100 ,3,0,,0,0.,4.8,0.,4.8,,0,0.,4.8,0.,4.8
1979-07-04 12:28:11.900 ,3,0,,0,2.,4.8,0.,4.8,,0,0.,4.8,0.,4.8
1979-07-04 12:28:16.700 ,3,0,,0,9.,4.8,0.,4.8,,0,0.,4.8,0.,4.8
1979-07-04 12:28:21.500 ,3,0,,0,5.,4.8,0.,4.8,,0,0.,4.8,1.,4.8
1979-07-04 12:28:26.300 ,3,0,,0,9.,4.8,0.,4.8,,0,0.,4.8,0.,4.8
1979-07-04 12:28:31.100 ,3,0,,0,6.,4.8,0.,4.8,,0,0.,4.8,0.,4.8
1979-07-04 12:28:35.900 ,3,0,,0,7.,4.8,0.,4.8,,0,0.,4.8,0.,4.8
1979-07-04 12:28:40.700 ,3,0,,0,0.,4.8,0.,4.8,,0,0.,4.8,0.,4.8
1979-07-04 12:28:45.500 ,3,0,,0,1.,4.8,0.,4.8,,0,0.,4.8,0.,4.8
1979-07-04 12:28:50.300 ,4,0,,0,0.,4.8,0.,4.8,,0,0.,4.8,0.,4.8
1979-07-04 12:28:55.100 ,4,0,,0,0.,4.8,0.,4.8,,0,0.,4.8,0.,4.8
1979-07-04 12:28:59.900 ,4,0,,0,2.,4.8,0.,4.8,,0,0.,4.8,2.,4.8
1979-07-04 12:29:04.700 ,4,0,,0,2.,4.8,0.,4.8,,0,0.,4.8,0.,4.8
1979-07-04 12:29:09.500 ,4,0,,0,12.,4.8,0.,4.8,,0,0.,4.8,0.,4.8
1979-07-04 12:29:14.300 ,4,0,,0,11.,4.8,0.,4.8,,0,0.,4.8,0.,4.8
1979-07-04 12:29:19.100 ,4,0,,0,6.,4.8,0.,4.8,,0,0.,4.8,0.,4.8
1979-07-04 12:29:23.900 ,4,0,,0,7.,4.8,0.,4.8,,0,0.,4.8,0.,4.8
1979-07-04 12:29:28.700 ,4,0,,0,0.,4.8,0.,4.8,,0,0.,4.8,1.,4.8
1979-07-04 12:29:33.500 ,4,0,,0,1.,4.8,0.,4.8,,0,0.,4.8,1.,4.8
1979-07-04 12:29:38.300 ,5,0,,0,0.,4.8,0.,4.8,,0,0.,4.8,1.,4.8
1979-07-04 12:29:43.100 ,5,0,,0,0.,4.8,0.,4.8,,0,0.,4.8,1.,4.8
1979-07-04 12:29:47.900 ,5,0,,0,2.,4.8,0.,4.8,,0,0.,4.8,1.,4.8
1979-07-04 12:29:52.700 ,5,0,,0,6.,4.8,0.,4.8,,0,0.,4.8,0.,4.8
1979-07-04 12:29:57.500 ,5,0,,0,4.,4.8,0.,4.8,,0,0.,4.8,1.,4.8
1979-07-04 12:30:02.300 ,5,0,,0,6.,4.8,0.,4.8,,0,0.,4.8,0.,4.8
1979-07-04 12:30:07.100 ,5,0,,0,8.,4.8,0.,4.8,,0,0.,4.8,0.,4.8
1979-07-04 12:30:11.900 ,5,0,,0,5.,4.8,0.,4.8,,0,0.,4.8,1.,4.8
1979-07-04 12:30:16.700 ,5,0,,0,0.,4.8,0.,4.8,,0,0.,4.8,0.,4.8
1979-07-04 12:30:21.500 ,5,0,,0,0.,4.8,0.,4.8,,0,0.,4.8,2.,4.8
1979-07-04 12:30:26.300 ,6,0,,0,0.,4.8,0.,4.8,,0,0.,4.8,0.,4.8
1979-07-04 12:30:31.100 ,6,0,,0,0.,4.8,0.,4.8,,0,0.,4.8,1.,4.8
1979-07-04 12:30:35.900 ,6,0,,0,2.,4.8,0.,4.8,,0,0.,4.8,1.,4.8